Location: Ferchesar
(52.6477°N, 12.4298°E)
Time: 17:18:20
(UTC+01:00)

Explorer 7 - Pass Details

Date: 14 December 2021
Orbit: 483 x 674 km, 50.3° (Epoch: 23 January)

Event Time Altitude Azimuth Distance (km) Brightness Sun altitude
Rises 05:13:32 0° 268° (W) 2,883 - -25.9°
Reaches altitude 10° 05:15:55 10° 265° (W) 1,945 - -25.6°
Maximum altitude 05:20:19 64° 185° (S) 640 - -24.9°
Exits shadow 05:20:44 60° 152° (SSE) 660 7.2 -24.8°
Drops below altitude 10° 05:24:26 10° 104° (ESE) 1,822 10.5 -24.3°
Sets 05:26:36 0° 101° (ESE) 2,683 11.8 -24.0°
